When you browse on this site, cookies collect data to enhance your experience and personalize the content and advertising you see.
Visit our Privacy Policy to learn more. By continuing to use the site, you agree to this use of cookies and data.
  • Em Portugal
  • Lista de países
  • Para 7 dias
  • Temperatura da água
  • Mapas de satélite
  • Mapa do tempo
  • Widgets de tempo
  • user-avatar
    Iniciar Sessão

    Previsão horária em Rechytsa

    Hoje, 19 Fevereiro, Terça-feira

    Tempo Temperatura Precipitação Vento Pressão Humidade
    00:00 -2°C° 0 mm 1 m/s 757 mmHg 86%
    01:00 -2°C° 0 mm 1 m/s 757 mmHg 86%
    02:00 -2°C° 0 mm 1 m/s 757 mmHg 86%
    03:00 -4°C° 0 mm 2 m/s 757 mmHg 86%
    04:00 -4°C° 0 mm 2 m/s 757 mmHg 86%
    05:00 -4°C° 0 mm 2 m/s 756 mmHg 86%
    06:00 -4°C° 0 mm 2 m/s 756 mmHg 84%
    07:00 -5°C° 0 mm 3 m/s 756 mmHg 83%
    08:00 -5°C° 0 mm 3 m/s 756 mmHg 82%
    09:00 -2°C° 0 mm 3 m/s 755 mmHg 79%
    10:00 -2°C° 0 mm 4 m/s 755 mmHg 75%
    11:00 -1°C° 0 mm 4 m/s 755 mmHg 71%
    12:00 0°C° 0 mm 4 m/s 754 mmHg 70%
    13:00 +1°C° 0 mm 4 m/s 754 mmHg 68%
    14:00 +3°C° 0 mm 4 m/s 753 mmHg 67%
    15:00 +1°C° 0 mm 4 m/s 752 mmHg 68%
    16:00 +1°C° 0 mm 4 m/s 752 mmHg 70%
    17:00 0°C° 0 mm 4 m/s 751 mmHg 71%
    18:00 0°C° 0 mm 5 m/s 751 mmHg 74%
    19:00 0°C° 0 mm 5 m/s 750 mmHg 77%
    20:00 -1°C° 0 mm 5 m/s 750 mmHg 80%
    21:00 -1°C° 0 mm 5 m/s 749 mmHg 83%
    22:00 -1°C° 0 mm 5 m/s 749 mmHg 86%
    23:00 -1°C° 0 mm 5 m/s 748 mmHg 89%

    Amanhã, 20 Fevereiro, Quarta-feira

    Tempo Temperatura Precipitação Vento Pressão Humidade
    00:00 -1°C° 0 mm 5 m/s 748 mmHg 90%
    01:00 -1°C° 0 mm 4 m/s 747 mmHg 92%
    02:00 -1°C° 0 mm 4 m/s 747 mmHg 93%
    03:00 -1°C° 0 mm 4 m/s 747 mmHg 93%
    04:00 -1°C° 0 mm 4 m/s 746 mmHg 94%
    05:00 -2°C° 0 mm 4 m/s 746 mmHg 94%
    06:00 -1°C° 0 mm 4 m/s 746 mmHg 94%
    07:00 0°C° 0 mm 3 m/s 746 mmHg 94%
    08:00 0°C° 0 mm 3 m/s 746 mmHg 94%
    09:00 +1°C° 0.1 mm 3 m/s 746 mmHg 93%
    10:00 +2°C° 0.1 mm 3 m/s 746 mmHg 92%
    11:00 +2°C° 0.1 mm 3 m/s 746 mmHg 91%
    12:00 +3°C° 0 mm 4 m/s 746 mmHg 88%
    13:00 +4°C° 0 mm 4 m/s 746 mmHg 85%
    14:00 +4°C° 0 mm 4 m/s 746 mmHg 82%
    15:00 +4°C° 0 mm 4 m/s 746 mmHg 83%
    16:00 +3°C° 0 mm 4 m/s 746 mmHg 84%
    17:00 +1°C° 0 mm 4 m/s 746 mmHg 86%
    18:00 +1°C° 0 mm 4 m/s 746 mmHg 85%
    19:00 +1°C° 0 mm 5 m/s 745 mmHg 84%
    20:00 +1°C° 0 mm 5 m/s 745 mmHg 83%
    21:00 0°C° 0.1 mm 5 m/s 745 mmHg 83%
    22:00 0°C° 0.1 mm 5 m/s 745 mmHg 83%
    23:00 -1°C° 0.1 mm 6 m/s 745 mmHg 83%

    Depois de amanhã, 21 Fevereiro, Quinta-feira

    Tempo Temperatura Precipitação Vento Pressão Humidade
    00:00 -2°C° 0.1 mm 6 m/s 745 mmHg 79%
    01:00 -3°C° 0.1 mm 6 m/s 746 mmHg 76%
    02:00 -4°C° 0.1 mm 6 m/s 746 mmHg 72%
    03:00 -4°C° 0 mm 6 m/s 746 mmHg 71%
    04:00 -5°C° 0 mm 6 m/s 747 mmHg 70%
    05:00 -5°C° 0 mm 6 m/s 747 mmHg 69%
    06:00 -5°C° 0 mm 6 m/s 747 mmHg 69%
    07:00 -5°C° 0 mm 6 m/s 747 mmHg 69%
    08:00 -5°C° 0 mm 6 m/s 748 mmHg 69%
    09:00 -4°C° 0 mm 6 m/s 748 mmHg 66%
    10:00 -4°C° 0 mm 7 m/s 748 mmHg 64%
    11:00 -4°C° 0 mm 7 m/s 748 mmHg 61%
    12:00 -4°C° 0 mm 7 m/s 748 mmHg 60%
    13:00 -3°C° 0 mm 7 m/s 748 mmHg 59%
    14:00 -3°C° 0 mm 7 m/s 748 mmHg 57%
    15:00 -4°C° 0 mm 6 m/s 749 mmHg 59%
    16:00 -4°C° 0 mm 6 m/s 749 mmHg 60%
    17:00 -5°C° 0 mm 5 m/s 749 mmHg 61%
    18:00 -5°C° 0 mm 5 m/s 750 mmHg 61%
    19:00 -5°C° 0 mm 5 m/s 750 mmHg 61%
    20:00 -6°C° 0 mm 5 m/s 751 mmHg 61%
    21:00 -5°C° 0 mm 4 m/s 751 mmHg 62%
    22:00 -5°C° 0 mm 4 m/s 751 mmHg 63%
    23:00 -5°C° 0 mm 4 m/s 751 mmHg 64%

    22 Fevereiro, Sexta-feira

    Tempo Temperatura Precipitação Vento Pressão Humidade
    00:00 -5°C° 0 mm 4 m/s 752 mmHg 65%
    01:00 -5°C° 0 mm 4 m/s 752 mmHg 66%
    02:00 -7°C° 0 mm 4 m/s 752 mmHg 68%
    03:00 -7°C° 0 mm 5 m/s 753 mmHg 67%
    04:00 -7°C° 0 mm 5 m/s 753 mmHg 66%
    05:00 -9°C° 0 mm 6 m/s 754 mmHg 65%
    06:00 -9°C° 0 mm 6 m/s 754 mmHg 64%
    07:00 -11°C° 0 mm 7 m/s 755 mmHg 63%
    08:00 -12°C° 0 mm 7 m/s 756 mmHg 63%
    09:00 -12°C° 0 mm 7 m/s 756 mmHg 60%
    10:00 -12°C° 0 mm 7 m/s 757 mmHg 58%
    11:00 -11°C° 0 mm 7 m/s 757 mmHg 56%
    12:00 -11°C° 0 mm 7 m/s 758 mmHg 54%
    13:00 -11°C° 0 mm 7 m/s 758 mmHg 53%
    14:00 -9°C° 0 mm 7 m/s 759 mmHg 51%
    15:00 -9°C° 0 mm 7 m/s 759 mmHg 52%
    16:00 -9°C° 0 mm 7 m/s 760 mmHg 53%
    17:00 -9°C° 0 mm 7 m/s 760 mmHg 54%
    18:00 -10°C° 0 mm 6 m/s 761 mmHg 55%
    19:00 -10°C° 0 mm 6 m/s 761 mmHg 57%
    20:00 -10°C° 0 mm 5 m/s 762 mmHg 58%
    21:00 -10°C° 0 mm 5 m/s 762 mmHg 58%
    22:00 -10°C° 0 mm 5 m/s 762 mmHg 58%
    23:00 -10°C° 0 mm 5 m/s 762 mmHg 58%

    23 Fevereiro, Sábado

    Tempo Temperatura Precipitação Vento Pressão Humidade
    00:00 -10°C° 0 mm 5 m/s 762 mmHg 62%
    01:00 -10°C° 0 mm 5 m/s 763 mmHg 65%
    02:00 -10°C° 0 mm 5 m/s 763 mmHg 69%
    03:00 -10°C° 0 mm 5 m/s 763 mmHg 68%
    04:00 -11°C° 0 mm 5 m/s 763 mmHg 68%
    05:00 -10°C° 0 mm 4 m/s 763 mmHg 68%
    06:00 -11°C° 0 mm 5 m/s 763 mmHg 68%
    07:00 -12°C° 0 mm 5 m/s 764 mmHg 68%
    08:00 -12°C° 0 mm 5 m/s 764 mmHg 69%
    09:00 -11°C° 0 mm 5 m/s 764 mmHg 64%
    10:00 -11°C° 0 mm 5 m/s 764 mmHg 59%
    11:00 -9°C° 0 mm 4 m/s 764 mmHg 55%
    12:00 -9°C° 0 mm 4 m/s 764 mmHg 52%
    13:00 -8°C° 0 mm 4 m/s 763 mmHg 49%
    14:00 -8°C° 0 mm 4 m/s 763 mmHg 47%
    15:00 -8°C° 0 mm 4 m/s 763 mmHg 48%
    16:00 -8°C° 0 mm 4 m/s 763 mmHg 50%
    17:00 -8°C° 0 mm 4 m/s 763 mmHg 51%
    18:00 -7°C° 0 mm 3 m/s 763 mmHg 54%
    19:00 -7°C° 0 mm 3 m/s 763 mmHg 57%
    20:00 -7°C° 0 mm 2 m/s 763 mmHg 60%
    21:00 -7°C° 0 mm 2 m/s 763 mmHg 63%
    22:00 -7°C° 0 mm 2 m/s 764 mmHg 65%
    23:00 -8°C° 0 mm 2 m/s 764 mmHg 68%

    24 Fevereiro, Domingo

    Tempo Temperatura Precipitação Vento Pressão Humidade
    00:00 -8°C° 0 mm 2 m/s 764 mmHg 70%
    01:00 -8°C° 0 mm 2 m/s 764 mmHg 71%
    02:00 -8°C° 0 mm 2 m/s 764 mmHg 73%
    03:00 -9°C° 0 mm 2 m/s 764 mmHg 73%
    04:00 -9°C° 0 mm 2 m/s 764 mmHg 74%
    05:00 -9°C° 0 mm 2 m/s 765 mmHg 74%
    06:00 -9°C° 0 mm 2 m/s 765 mmHg 72%
    07:00 -9°C° 0 mm 2 m/s 765 mmHg 71%
    08:00 -9°C° 0 mm 2 m/s 766 mmHg 69%
    09:00 -9°C° 0 mm 2 m/s 766 mmHg 62%
    10:00 -8°C° 0 mm 2 m/s 766 mmHg 55%
    11:00 -7°C° 0 mm 2 m/s 766 mmHg 49%
    12:00 -6°C° 0 mm 2 m/s 766 mmHg 46%
    13:00 -6°C° 0 mm 2 m/s 766 mmHg 43%
    14:00 -5°C° 0 mm 2 m/s 765 mmHg 40%
    15:00 -5°C° 0 mm 2 m/s 765 mmHg 42%
    16:00 -5°C° 0 mm 2 m/s 765 mmHg 44%
    17:00 -5°C° 0 mm 2 m/s 764 mmHg 45%
    18:00 -4°C° 0 mm 1 m/s 764 mmHg 49%
    19:00 -4°C° 0 mm 1 m/s 764 mmHg 52%
    20:00 -6°C° 0 mm 1 m/s 764 mmHg 55%
    21:00 -6°C° 0 mm 1 m/s 763 mmHg 56%
    22:00 -6°C° 0 mm 0 m/s 763 mmHg 57%
    23:00 -6°C° 0 mm 0 m/s 762 mmHg 58%
    Mostrar mais